スワン彗星

C/2015 C2 ( SWAN )

English version
Home page
Updated on May 29, 2016

---------------------------------------------------------------------

・ プロフィール

発見日 2015年2月15日
発見光度
発見者 R. Matson (Newport Coast, CA, USA), M. Mattiazzo (Swan Hill, Victoria, Australia), V. Bezugly (Dnepropetrovsk, Ukraine)

・ 写真集

・ 軌道要素

Epoch 2015 Feb. 27.0 TT = JDT 2457080.5
T 2015 Mar. 4.56511 TT                                  MPCW
q   0.7113753            (2000.0)            P               Q
z  +0.0021074      Peri.  334.13353     +0.55798327     +0.33688669
 +/-0.0000092      Node    49.52953     +0.82143247     -0.09436705
e   0.9985009      Incl.   94.50104     -0.11791255     +0.93680426
From 121 observations 2015 Feb. 25-July 20, mean residual 0".6.

・ 星図

・ 光度変化

        m1 = 11.0 + 5 logΔ + 12.0 log r(t - 10)

---------------------------------------------------------------------

軌道要素はM.P.E.C. 2015-Q71に掲載されたものです。
星図はステラナビゲータ Ver.8 (アストロアーツ) で作成したものです。
光度グラフはComet for Windowsで作成したものです。

---------------------------------------------------------------------

Copyright(C) Seiichi Yoshida (comet@aerith.net). All rights reserved.